Terminal Aerodrome Forecast
Issued by NWS Memphis, TN

Home | Current Version | Previous Version | Text Only | Print | Product List | Glossary On
Versions: 1 2 3 4 5 6 7 8 9 10 11 12 13 14 15 16 17 18 19 20 21
000
FTUS44 KMEG 231220 AAA
TAFJBR
TAF AMD
KJBR 231220Z 2312/2412 34009KT P6SM BKN045
     FM231600 01014G20KT P6SM SCT030
     FM240000 35006KT P6SM SKC=

USA.gov is the U.S. government's official web portal to all federal, state and local government web resources and services.